Powrót do katalogu

COSMOS 1019

AktywnyMilitariaLEO
NORAD 10936·PAYLOAD·🇷🇺 Russia

Wystrzelony Jun 7, 1978 z Plesetsk Cosmodrome

Loading…

Następne Przeloty (najbliższe 24 godziny)

TLE

ŚwieżeSource: Space-Track

Epoka: Sep 14, 2026, 13:48 UTC

1 10936U 78056G   26257.57547406 -.00000008  00000-0  51851-4 0  9998
2 10936  74.0242 111.5918 0040764 170.2322 218.0847 12.52162606206429

Śledź COSMOS 1019 w czasie rzeczywistym z AllMySat

Download on the App Store